OPTUS 10

Last updated on Sat Dec 13 2025 00:02:48 GMT+0000 (Coordinated Universal Time)

1 40146U 14054A 25345.87927020 -.00000139 00000+0 00000+0 0 9995 2 40146 0.1258 13.2600 0003189 245.5751 294.5433 1.00270645 41151
UTC large
Height (km)
Speed (km/s)
/
Latitude / Longitude
Inclination (degrees)
Orbital Period (minutes)
Azimuth
Elevation
Range (km)
Doppler Factor

Next 0 passes for location: London (51.5072 / 0.1276)

Sorry there are no passes over London.